Flag for U.S.A. Weather past 2 weeks in Philadelphia, Pennsylvania, U.S.A.

Now
56 °F

Partly cloudy.


Feels Like: 55 °F
Forecast: 50 / 66 °F
Wind: 5 mph from Southwest

Location: Philadelphia International Airport

Current Time: Oct 20, 2014 at 10:28:27 PM

Latest Report: Oct 20, 2014 at 9:54 PM


Visibility: 10 mi

Pressure: 29.98 "Hg

Humidity: 65%

Dew point: 44 °F

Location of PhiladelphiaLocation

Historic Weather in Philadelphia — Graph

°F

Philadelphia temperature yesterday

Maximum temperature yesterday: 56 °F (at 2:54 PM)
Minimum temperature yesterday: 48 °F (at 10:54 PM)
Average temperature yesterday: 53 °F

Past Weeks' High & Low Weather Summary

 TemperatureHumidityPressure
High78 °F (Oct 14, 12:54 PM)94% (Oct 13, 6:54 PM)30.32 "Hg (Oct 13, 6:54 PM)
Low41 °F (Oct 20, 4:54 AM)33% (Oct 9, 11:54 AM)29.61 "Hg (Oct 18, 4:54 AM)
Average62 °F67%29.99 "Hg
* Reported Oct 5 8:54 PM — Oct 20 8:54 PM, Philadelphia, Weather by CustomWeather, © 2014

Note: Actual official high and low records may vary slightly from our data, if they occured in-between our weather recording intervals... More about our weather records

Advertising

Philadelphia weather history for previous 24 hours

 ConditionsComfort  
Time TempWeatherWind HumidityBarometerVisibility
8:54 PM
Oct 20
56 °FPartly cloudy.7 mph67%29.98 "Hg10 mi
7:54 PM57 °FPartly cloudy.7 mph64%29.98 "Hg10 mi
6:54 PM58 °FPartly sunny.5 mph60%29.97 "Hg10 mi
5:54 PM60 °FPartly sunny.6 mph53%29.97 "Hg10 mi
4:54 PM62 °FBroken clouds.6 mph44%29.98 "Hg10 mi
3:54 PM62 °FPartly sunny.12 mph44%29.99 "Hg10 mi
2:54 PM61 °FBroken clouds.9 mph39%30.01 "Hg10 mi
1:54 PM62 °FPartly sunny.10 mph39%30.03 "Hg10 mi
12:54 PM60 °FBroken clouds.13 mph41%30.06 "Hg10 mi
11:54 AM57 °FPartly sunny.12 mph51%30.11 "Hg10 mi
10:54 AM55 °FMostly cloudy.13 mph53%30.13 "Hg10 mi
9:54 AM51 °FPartly sunny.5 mph56%30.14 "Hg10 mi
8:54 AM45 °FPartly sunny.3 mph60%30.14 "Hg10 mi
7:54 AM41 °FPassing clouds.No wind67%30.13 "Hg10 mi
6:54 AM41 °FPassing clouds.7 mph67%30.13 "Hg10 mi
5:54 AM42 °FPassing clouds.5 mph68%30.12 "Hg10 mi
4:54 AM41 °FPassing clouds.3 mph70%30.12 "Hg10 mi
3:54 AM42 °FPassing clouds.No wind68%30.11 "Hg10 mi
2:54 AM42 °FPassing clouds.5 mph68%30.11 "Hg10 mi
1:54 AM45 °FPassing clouds.No wind58%30.11 "Hg10 mi
12:54 AM45 °FPassing clouds.5 mph51%30.11 "Hg10 mi
10:54 PM
Oct 19
48 °FClear.No wind48%30.09 "Hg10 mi
Weather by CustomWeather, © 2014

See weather overviewHow to use our weather pages